AO-07 1 07530U 74089B 25303.96226382 -.00000027 00000-0 12193-3 0 9993 2 07530 101.9982 309.7763 0012051 207.7118 208.5526 12.53692868331798 AO-27 1 22825U 93061C 25303.64355785 .00000172 00000-0 82784-4 0 9997 2 22825 98.7204 5.7964 0009304 58.5585 301.6506 14.30852692674170 FO-29 1 24278U 96046B 25303.59514846 -.00000010 00000-0 27463-4 0 9991 2 24278 98.5504 178.5120 0349536 332.1300 26.1494 13.53258640442117 ISS 1 25544U 98067A 25303.58586495 .00019707 00000-0 35695-3 0 9998 2 25544 51.6344 356.1236 0004906 357.8004 2.2962 15.49627707536167 SO-50 1 27607U 02058C 25303.22119209 .00001825 00000-0 23783-3 0 9998 2 27607 64.5503 120.0747 0069423 304.6403 54.8170 14.82144993230366 AO-73 1 39444U 13066AE 25303.85023994 .00014925 00000-0 10402-2 0 9993 2 39444 97.8002 266.6499 0037769 262.5723 97.1210 15.04936585645116 IO-86 1 40931U 15052B 25151.18580175 .00001241 00000-0 78118-4 0 9996 2 40931 6.0006 24.0987 0012733 338.8432 21.1169 14.78805930523159 AO-91 1 43017U 17073E 25303.18754484 .00015190 00000-0 73045-3 0 9995 2 43017 97.4998 170.4053 0165956 40.1739 321.1619 15.07473772430675 PO-101 1 43678U 18084H 25303.93863221 .00003956 00000-0 33042-3 0 9994 2 43678 98.1102 125.6787 0007946 153.3177 206.8455 14.99136101381850 QO-100 1 43700U 18090A 25303.83192598 .00000154 00000-0 00000-0 0 9990 2 43700 0.0165 254.8064 0001921 359.8198 110.0805 1.00269718 25379 JO-97 1 43803U 18099AX 25303.14009102 .00020080 00000-0 80829-3 0 9995 2 43803 97.4486 1.1463 0006925 18.2499 341.8986 15.24891694378464 RS-44 1 44909U 19096E 25303.93678562 .00000029 00000-0 79406-4 0 9991 2 44909 82.5181 132.0553 0216866 320.6046 37.9451 12.79744988273024 CSS 1 48274U 21035A 25303.93539047 .00042230 00000-0 50765-3 0 9996 2 48274 41.4662 276.6926 0006882 296.8606 63.1529 15.60047661257342 HO-113 1 50466U 21131B 25303.94876591 .00000844 00000-0 27625-3 0 9992 2 50466 98.5072 32.5856 0005142 73.6241 286.5513 14.41021730202094 MO-122 1 60209U 24125G 25303.83286174 .00043989 00000-0 99909-3 0 9995 2 60209 97.2589 154.2722 0015849 347.6155 12.4701 15.42768840 73987 AO-123 1 61781U 24199AY 25303.93720907 .00014755 00000-0 49653-3 0 9990 2 61781 97.3301 169.8822 0016696 52.7817 307.4945 15.30749928 98795 SO-124 1 62690U 25009CK 25303.88274213 .00135271 00000-0 27593-2 0 9994 2 62690 97.3951 25.3030 0002769 278.5117 81.5818 15.45695839 44135 TEVEL2-9 1 63237U 25052AD 25303.20742533 .00022537 00000-0 95471-3 0 9992 2 63237 97.4153 194.9978 0005268 225.4470 134.6337 15.23153082 34918 TEVEL2-7 1 63238U 25052AE 25303.87449187 .00023773 00000-0 10093-2 0 9994 2 63238 97.4157 195.6386 0005431 222.5468 137.5349 15.23066278 35018 TEVEL2-8 1 63239U 25052AF 25303.22235866 .00022134 00000-0 94179-3 0 9999 2 63239 97.4156 194.9812 0005294 225.9695 134.1106 15.23006263 34910 SO-125 1 63492U 25052BN 25303.18245186 .00070936 00000-0 22033-2 0 9993 2 63492 97.4102 196.4055 0006443 217.3266 142.7530 15.33074060 35013 TEVEL2-4 1 63213U 25052D 25303.24109368 .00024578 00000-0 98758-3 0 9991 2 63213 97.4118 195.4378 0002637 153.0798 207.0577 15.24926950 34957 TEVEL2-5 1 63214U 25052E 25303.50724009 .00024042 00000-0 96735-3 0 9995 2 63214 97.4118 195.6936 0002668 152.3031 207.8349 15.24886028 34996 TEVEL2-6 1 63215U 25052F 25303.51320033 .00024134 00000-0 97233-3 0 9992 2 63215 97.4119 195.6896 0002638 153.6763 206.4610 15.24840117 34991 TEVEL2-1 1 63217U 25052H 25303.21905872 .00023475 00000-0 95452-3 0 9999 2 63217 97.4093 195.2447 0002043 170.6180 189.5096 15.24538856 34942 TEVEL2-3 1 63218U 25052J 25303.67821469 .00023029 00000-0 93547-3 0 9997 2 63218 97.4094 195.7024 0002157 169.3527 190.7757 15.24574916 35010 TEVEL2-2 1 63219U 25052K 25303.67928661 .00022561 00000-0 91701-3 0 9990 2 63219 97.4090 195.6999 0002107 169.6355 190.4926 15.24558538 35011 NO-44 1 26931U 01043C 25303.84755211 .00000286 00000-0 13772-3 0 9994 2 26931 67.0486 117.3961 0007155 272.3866 87.6417 14.31816526257615 IO-117 1 53106U 22080B 25167.32760529 -.00000003 00000-0 00000-0 0 9996 2 53106 70.1560 65.9804 0008358 24.6429 335.4629 6.42557409 68669 SONATE-2 1 59112U 24043Q 25303.93020930 .00036862 00000-0 86181-3 0 9992 2 59112 97.5309 78.6937 0009161 322.8426 37.2186 15.42030594 92378